Retour au catalogue

STARLINK-34451

ActifCommunicationsVLEO
NORAD 64433·PAYLOAD·🇺🇸 United States

Lancé Jun 17, 2025 depuis Vandenberg Space Force Base

Loading…

Prochains Passages (prochaines 24 heures)

TLE

FraisSource: CelesTrak SupGP

Époque: Sep 15, 2026, 02:31 UTC

1 64433C 25129X   26258.10534722  .00049543  00000+0  17234-2 0  2587
2 64433  69.9994 315.3087 0003660 266.7848 288.0961 15.29552890    12

Suivez STARLINK-34451 en temps réel avec AllMySat

Download on the App Store